MEASAT-3A

Last updated on Fri Dec 19 2025 00:02:49 GMT+0000 (Coordinated Universal Time)

1 35362U 09032A 25352.63141977 -.00000085 00000+0 00000+0 0 9990 2 35362 0.0223 347.2365 0002739 284.4573 203.1279 1.00272311 6223
UTC large
Height (km)
Speed (km/s)
/
Latitude / Longitude
Inclination (degrees)
Orbital Period (minutes)
Azimuth
Elevation
Range (km)
Doppler Factor

Next 0 passes for location: London (51.5072 / 0.1276)

Sorry there are no passes over London.